Alexandria, MN

3:58 PM CST on February 07, 2016 (GMT -0600)
Chandler

Weather History for KAXN - November, 2012

Change the Weather History Date:

Thursday, November 15, 2012

  Actual Average Record
Temperature  
Mean Temperature 32 °F -  
Max Temperature 39 °F 38 °F 65 °F (1953)
Min Temperature 25 °F 22 °F 1 °F (2014)
Degree Days  
Heating Degree Days 33    
Moisture  
Dew Point 22 °F    
Average Humidity 66    
Maximum Humidity 89    
Minimum Humidity 44    
Precipitation  
Precipitation 0.00 in - - ()
Sea Level Pressure  
Sea Level Pressure 30.34 in    
Wind  
Wind Speed 9 mph (NW)    
Max Wind Speed 16 mph    
Max Gust Speed 22 mph    
Visibility 10 miles    
Events      
Averages and records for this station are not official NWS values.
T = Trace of Precipitation, MM = Missing Value Source: NWS Daily Summary

Daily Weather History Graph

Daily Weather History Graph

Search for Another Location

Airport or City:

Trip Planner

Search our weather history database for the weather conditions in past years. The results will help you decide how hot, cold, wet, or windy it might be!

Date:

Astronomy

Nov. 15, 2012 Rise Set
Actual Time 7:22 AM CST 4:49 PM CST
Civil Twilight 6:49 AM CST 5:22 PM CST
Nautical Twilight 6:13 AM CST 5:58 PM CST
Astronomical Twilight 5:38 AM CST 6:33 PM CST
Moon 9:22 AM CST (11/15) 6:38 PM CST (11/15)
Length of Visible Light 10h 32m
Length of Day
9h 27m
Waxing Crescent, 5% of the Moon is Illuminated
Nov 15
Waxing Crescent
Nov 20
First Quarter
Nov 28
Full
Dec 6
Last Quarter
Dec 13
New

Hourly Weather History & Observations

Time (CST) Temp. Windchill Dew Point Humidity Pressure Visibility Wind Dir Wind Speed Gust Speed Precip Events Conditions
12:53 AM 39.0 °F 32.8 °F 30.9 °F 73% 30.12 in 10.0 mi SSW 9.2 mph - N/A   Mostly Cloudy
1:53 AM 36.0 °F 31.1 °F 28.9 °F 76% 30.12 in 10.0 mi WSW 5.8 mph - N/A   Overcast
2:53 AM 34.0 °F 28.0 °F 28.0 °F 79% 30.13 in 10.0 mi SW 6.9 mph - N/A   Clear
3:53 AM 34.0 °F 28.8 °F 28.0 °F 79% 30.14 in 10.0 mi WSW 5.8 mph - N/A   Clear
4:53 AM 33.1 °F 27.7 °F 28.0 °F 82% 30.15 in 10.0 mi WSW 5.8 mph - N/A   Clear
5:53 AM 34.0 °F 26.6 °F 28.9 °F 82% 30.18 in 10.0 mi WNW 9.2 mph - N/A   Clear
6:53 AM 32.0 °F 23.6 °F 28.0 °F 85% 30.21 in 10.0 mi NW 10.4 mph - N/A   Clear
7:53 AM 30.9 °F 22.8 °F 28.0 °F 89% 30.25 in 10.0 mi NW 9.2 mph - N/A   Clear
8:53 AM 33.1 °F 23.9 °F 28.0 °F 82% 30.28 in 10.0 mi NNW 12.7 mph - N/A   Clear
9:53 AM 35.1 °F 25.9 °F 28.0 °F 76% 30.31 in 10.0 mi NNW 13.8 mph - N/A   Clear
10:53 AM 37.0 °F 29.3 °F 26.1 °F 65% 30.34 in 10.0 mi North 11.5 mph - N/A   Clear
11:53 AM 37.9 °F 29.6 °F 23.0 °F 55% 30.36 in 10.0 mi NW 13.8 mph - N/A   Clear
12:53 PM 37.0 °F 28.9 °F 23.0 °F 57% 30.37 in 10.0 mi NNW 12.7 mph - N/A   Clear
1:53 PM 37.0 °F 27.7 °F 19.0 °F 48% 30.39 in 10.0 mi North 16.1 mph 21.9 mph N/A   Clear
2:53 PM 36.0 °F 27.1 °F 16.0 °F 44% 30.41 in 10.0 mi NNW 13.8 mph 19.6 mph N/A   Clear
3:53 PM 34.0 °F 25.0 °F 16.0 °F 48% 30.43 in 10.0 mi NNW 12.7 mph - N/A   Clear
4:53 PM 32.0 °F 23.0 °F 12.0 °F 44% 30.46 in 10.0 mi NNW 11.5 mph - N/A   Clear
5:53 PM 30.0 °F 22.4 °F 14.0 °F 51% 30.47 in 10.0 mi NNW 8.1 mph - N/A   Clear
6:53 PM 28.9 °F 20.4 °F 14.0 °F 54% 30.48 in 10.0 mi North 9.2 mph - N/A   Clear
7:53 PM 27.0 °F 21.6 °F 15.1 °F 61% 30.49 in 10.0 mi NNW 4.6 mph - N/A   Clear
8:53 PM 25.0 °F 19.3 °F 15.1 °F 66% 30.50 in 10.0 mi NNW 4.6 mph - N/A   Clear
9:53 PM 26.1 °F 18.4 °F 15.1 °F 63% 30.50 in 10.0 mi North 6.9 mph - N/A   Clear
10:53 PM 25.0 °F - 12.9 °F 60% 30.51 in 10.0 mi Calm Calm - N/A   Clear
11:53 PM 25.0 °F - 12.9 °F 60% 30.53 in 10.0 mi Calm Calm - N/A   Clear